HB9EKO-12 Weather Reports


time (UTC)temp
F
wind
direction
speed
knots
gust
knots
rain 1hr
in
rain 24hr
in
rain mn
in
humidity
%
barometer
mb
20260506032129 51 0 0.0 0.0 0.00 0.00 0.00 10 1009.0
20260506030624 51 0 0.0 0.0 0.00 0.00 0.00 10 1009.0
20260506025119 52 0 0.0 0.0 0.00 0.00 0.00 10 1009.0
20260506023614 52 0 0.0 0.0 0.00 0.00 0.00 10 1009.0
20260506022108 52 0 0.0 0.0 0.00 0.00 0.00 10 1009.0
20260506020603 52 0 0.0 0.0 0.00 0.00 0.00 10 1010.0
20260506015058 52 0 0.0 0.0 0.00 0.00 0.00 99 1010.0
20260506013553 53 0 0.0 0.0 0.00 0.00 0.00 99 1010.0
20260506012047 52 0 0.0 0.0 0.00 0.00 0.00 10 1010.0
20260506010542 52 0 0.0 0.0 0.00 0.00 0.00 10 1010.0
20260506005037 52 0 0.0 0.0 0.00 0.00 0.00 10 1010.0
20260506003532 53 0 0.0 0.0 0.00 0.00 0.00 99 1010.0
20260506002026 53 0 0.0 0.0 0.00 0.00 0.00 99 1011.0
20260506000521 53 0 0.0 0.0 0.00 0.00 0.00 97 1011.0
20260505235016 53 0 0.0 0.0 0.00 0.00 0.00 97 1010.0
20260505233511 53 0 0.0 0.0 0.00 0.00 0.00 96 1011.0
20260505232005 55 0 0.0 0.0 0.00 0.00 0.00 94 1011.0
20260505230500 54 0 0.0 0.0 0.00 0.00 0.00 96 1011.0
20260505224955 54 0 0.0 0.0 0.00 0.00 0.00 96 1011.0
20260505223450 54 0 0.0 0.0 0.00 0.00 0.00 95 1011.0
20260505221945 54 0 0.0 0.0 0.00 0.00 0.00 96 1011.0
20260505220439 54 0 2.6 0.0 0.00 0.00 0.00 96 1011.0
20260505214934 54 0 0.0 0.0 0.00 0.00 0.00 97 1011.0
20260505213429 54 0 0.0 0.0 0.00 0.00 0.00 98 1011.0
20260505211924 54 0 0.0 0.0 0.00 0.00 0.00 10 1011.0
20260505210418 54 0 0.0 0.0 0.00 0.00 0.00 10 1011.0
20260505204913 54 0 0.0 0.0 0.00 0.00 0.00 10 1011.0
20260505203408 54 0 0.0 0.0 0.00 0.00 0.00 10 1011.0
20260505201903 54 0 0.0 0.0 0.00 0.00 0.00 10 1011.0
20260505194852 55 0 0.0 0.0 0.00 0.00 0.00 10 1011.0
20260505193347 55 0 0.0 0.0 0.00 0.00 0.00 10 1011.0
20260505191842 55 0 0.0 0.0 0.00 0.00 0.00 10 1011.0
20260505190336 55 0 6.1 0.0 0.00 0.00 0.00 10 1010.0
20260505184831 55 0 3.5 0.0 0.00 0.00 0.00 10 1010.0
20260505183326 55 0 7.0 0.0 0.00 0.00 0.00 10 1010.0
20260505181821 56 0 0.9 0.0 0.00 0.00 0.00 98 1010.0
20260505180315 56 0 4.3 0.0 0.00 0.00 0.00 98 1010.0
20260505174810 56 0 1.7 0.0 0.00 0.00 0.00 96 1010.0
20260505173305 56 0 7.0 0.0 0.00 0.00 0.00 94 1010.0
20260505171800 55 0 1.7 0.0 0.00 0.00 0.00 93 1010.0
20260505170255 57 0 2.6 0.0 0.00 0.00 0.00 85 1010.0
20260505164750 57 0 0.0 0.0 0.00 0.00 0.00 85 1010.0
20260505163244 57 0 0.0 0.0 0.00 0.00 0.00 81 1011.0
20260505161739 58 0 2.6 0.0 0.00 0.00 0.00 73 1010.0
20260505160234 59 0 1.7 0.0 0.00 0.00 0.00 65 1010.0
20260505153223 63 0 6.1 0.0 0.00 0.00 0.00 62 1010.0
20260505151718 65 0 0.9 0.0 0.00 0.00 0.00 61 1009.0
20260505150213 69 0 0.9 0.0 0.00 0.00 0.00 54 1009.0
20260505140152 67 0 4.3 0.0 0.00 0.00 0.00 63 1009.0
20260505130131 64 0 0.0 0.0 0.00 0.00 0.00 73 1010.0
20260505124625 63 0 0.0 0.0 0.00 0.00 0.00 70 1010.0
20260505123120 62 0 0.0 0.0 0.00 0.00 0.00 78 1010.0
20260505121615 61 0 0.9 0.0 0.00 0.00 0.00 79 1010.0
20260505120110 61 0 2.6 0.0 0.00 0.00 0.00 82 1010.0
20260505114605 61 0 0.0 0.0 0.00 0.00 0.00 84 1010.0
20260505113059 60 0 0.0 0.0 0.00 0.00 0.00 87 1010.0
20260505111554 59 0 0.0 0.0 0.00 0.00 0.00 93 1010.0
20260505101533 57 0 1.7 0.0 0.00 0.00 0.00 96 1010.0
20260505100028 57 0 0.0 0.0 0.00 0.00 0.00 10 1011.0
20260505094523 55 0 4.3 0.0 0.00 0.00 0.00 99 1011.0
20260505093017 56 0 0.0 0.0 0.00 0.00 0.00 98 1010.0
20260505091512 55 0 0.0 0.0 0.00 0.00 0.00 97 1011.0
20260505090007 56 0 0.0 0.0 0.00 0.00 0.00 95 1011.0
20260505084502 57 0 0.0 0.0 0.00 0.00 0.00 92 1011.0
20260505082956 57 0 0.0 0.0 0.00 0.00 0.00 87 1011.0
20260505081451 57 0 0.0 0.0 0.00 0.00 0.00 88 1011.0
20260505075946 56 0 0.0 0.0 0.00 0.00 0.00 88 1011.0
20260505074441 56 0 0.0 0.0 0.00 0.00 0.00 88 1011.0
20260505072935 56 0 0.0 0.0 0.00 0.00 0.00 88 1011.0
20260505071430 56 0 0.0 0.0 0.00 0.00 0.00 90 1011.0
20260505065925 54 0 0.0 0.0 0.00 0.00 0.00 93 1011.0
20260505064420 54 0 0.0 0.0 0.00 0.00 0.00 92 1011.0
20260505062915 54 0 0.0 0.0 0.00 0.00 0.00 93 1011.0
20260505061409 54 0 0.0 0.0 0.00 0.00 0.00 93 1011.0
20260505055904 53 0 0.0 0.0 0.00 0.00 0.00 96 1012.0
20260505054359 53 0 0.0 0.0 0.00 0.00 0.00 97 1011.0
20260505052854 53 0 0.0 0.0 0.00 0.00 0.00 98 1011.0
20260505051348 52 0 0.0 0.0 0.00 0.00 0.00 10 1011.0
20260505041327 50 0 0.0 0.0 0.00 0.00 0.00 10 1011.0
20260505035822 50 0 0.0 0.0 0.00 0.00 0.00 10 1011.0
20260505034317 50 0 0.0 0.0 0.00 0.00 0.00 99 1011.0